sat.trackr.live / text

‹ back to catalog

STARLINK-32372

NORAD 61960 · 2024-210B

PAYLOAD ACTIVE UNKNOWN

§ Identity

Operator
Country
US
Launch date
2024-11-14
Launch site
AFETR
Launch vehicle
Mass (kg)
RCS (m²)

Purposes: comms

External: N2YO · Heavens-Above · Gunter

§ Orbital elements

Epoch: 2026-05-25T04:38:05.015904Z

Period
94.27 min
Inclination
42.9999°
Eccentricity
0.0000963
Mean motion
15.27593236 rev/d
Perigee alt
482.3 km
Apogee alt
483.7 km
Semi-major
6,861.1 km
B*
2.9384e-4
RAAN
107.4790°
Arg perigee
252.0787°
Mean anomaly
107.9960°
Rev number
8,648

§ Raw data

STARLINK-323721 61960U 24210B   26145.19311361  .00007836  00000+0  29384-3 0  99962 61960  42.9999 107.4790 0000963 252.0787 107.9960 15.27593236 86484

JSON: /api/v1/satellites/61960 · /tle

For live sub-satellite position, see the globe view (requires WebGL).

§ Visibility from observer

Set your observer location to see the next 7 days of passes ≥ 10°. The values pass through the URL so the page stays shareable.

No JS? Fill the form by hand. The geolocation button needs JavaScript.